XW-2A (40903 NORAD) Tracking and Keplerian Element Data

This shows tracking and keplerian element data for the satellite.

Feedback or suggestion? Click here.




ElementValue
Catalog40903
NameXW-2A
Epoch Orbit42764
Epoch Day112.4363265
Epoch Year2023
RAAN181.5568
Inclination97.0819
Eccentricity0.0011783
Argument of Perigee175.5276
Mean Anonmoly309.8044
Mean Motion16.51931608
Decay Rate0.188144
L11 40903U 15049E 23112.43632650 .18814400 25108-5 15498-3 0 9990
L22 40903 97.0819 181.5568 0011783 175.5276 309.8044 16.51931608427640



Live tracking and technical data element details for XW-2A (NORAD 40903). XW-2A can be tracked NOW for your location showing map with azimuth and elevation plus other details from your city location.







IsCatalogInMostPopularTable: catalog: 40903, numindb: 513
Update: records affected: 1



GetName: 40903 XW-2A

Hit Count: updated at: Thu, 23 Jan 2025 18:11:43 GMT